| time (UTC) | temp F | wind direction | speed MPH | gust MPH | rain 1hr in | rain 24hr in | rain mn in | humidity % | barometer mb |
| 20260502190527 | 65 | 76 | 0.0 | 0.0 | 0.00 | 0.00 | 0.00 | 36 | 1018.3 |
| 20260502190032 | 64 | 242 | 0.0 | 0.0 | 0.00 | 0.00 | 0.00 | 37 | 1018.3 |
| 20260502185537 | 64 | 338 | 0.0 | 1.0 | 0.00 | 0.00 | 0.00 | 36 | 1018.3 |
| 20260502185021 | 64 | 238 | 0.0 | 1.0 | 0.00 | 0.00 | 0.00 | 36 | 1018.4 |
| 20260502184526 | 64 | 44 | 0.0 | 1.0 | 0.00 | 0.00 | 0.00 | 36 | 1018.5 |
| 20260502184031 | 64 | 57 | 0.0 | 0.0 | 0.00 | 0.00 | 0.00 | 39 | 1018.5 |
| 20260502183536 | 64 | 204 | 0.0 | 0.0 | 0.00 | 0.00 | 0.00 | 38 | 1018.5 |
| 20260502183025 | 64 | 101 | 0.0 | 2.0 | 0.00 | 0.00 | 0.00 | 38 | 1018.6 |
| 20260502182531 | 64 | 43 | 0.0 | 2.0 | 0.00 | 0.00 | 0.00 | 36 | 1018.5 |
| 20260502182036 | 65 | 222 | 0.0 | 1.0 | 0.00 | 0.00 | 0.00 | 36 | 1018.5 |
| 20260502181542 | 64 | 82 | 0.0 | 0.0 | 0.00 | 0.00 | 0.00 | 36 | 1018.6 |
| 20260502181025 | 63 | 260 | 0.0 | 0.0 | 0.00 | 0.00 | 0.00 | 39 | 1018.6 |
| 20260502180531 | 63 | 52 | 0.0 | 1.0 | 0.00 | 0.00 | 0.00 | 39 | 1018.7 |
| 20260502164037 | 63 | 59 | 0.0 | 0.0 | 0.00 | 0.00 | 0.00 | 42 | 1019.0 |
| 20260502163526 | 62 | 24 | 0.0 | 0.0 | 0.00 | 0.00 | 0.00 | 41 | 1019.1 |
| 20260502163032 | 63 | 228 | 0.0 | 1.0 | 0.00 | 0.00 | 0.00 | 38 | 1019.1 |
| 20260502162536 | 63 | 50 | 0.0 | 1.0 | 0.00 | 0.00 | 0.00 | 40 | 1019.1 |
| 20260502162021 | 62 | 49 | 0.0 | 0.0 | 0.00 | 0.00 | 0.00 | 41 | 1019.1 |
| 20260502161526 | 61 | 11 | 0.0 | 3.0 | 0.00 | 0.00 | 0.00 | 40 | 1019.1 |
| 20260502161051 | 62 | 71 | 0.0 | 1.0 | 0.00 | 0.00 | 0.00 | 40 | 1019.0 |
| 20260502160536 | 61 | 317 | 0.0 | 1.0 | 0.00 | 0.00 | 0.00 | 41 | 1019.0 |
| 20260502152035 | 60 | 42 | 0.0 | 0.0 | 0.00 | 0.00 | 0.00 | 52 | 1018.9 |
| 20260502151525 | 59 | 63 | 0.0 | 0.0 | 0.00 | 0.00 | 0.00 | 54 | 1018.9 |
| 20260502151049 | 58 | 55 | 0.0 | 0.0 | 0.00 | 0.00 | 0.00 | 58 | 1018.8 |
| 20260502150533 | 58 | 22 | 0.0 | 0.0 | 0.00 | 0.00 | 0.00 | 60 | 1018.9 |
| 20260502130537 | 50 | 231 | 0.0 | 0.0 | 0.00 | 0.00 | 0.00 | 72 | 1018.2 |
| 20260502123544 | 47 | 146 | 0.0 | 0.0 | 0.00 | 0.00 | 0.00 | 78 | 1017.8 |
| 20260502123047 | 46 | 236 | 0.0 | 0.0 | 0.00 | 0.00 | 0.00 | 79 | 1017.9 |
| 20260502122532 | 46 | 252 | 0.0 | 0.0 | 0.00 | 0.00 | 0.00 | 80 | 1017.8 |
| 20260502122035 | 45 | 254 | 0.0 | 0.0 | 0.00 | 0.00 | 0.00 | 81 | 1017.7 |
| 20260502121540 | 45 | 253 | 0.0 | 0.0 | 0.00 | 0.00 | 0.00 | 82 | 1017.7 |
| 20260502121025 | 45 | 253 | 0.0 | 0.0 | 0.00 | 0.00 | 0.00 | 82 | 1017.5 |
| 20260502120534 | 44 | 253 | 0.0 | 0.0 | 0.00 | 0.00 | 0.00 | 83 | 1017.4 |
| 20260502115524 | 44 | 253 | 0.0 | 0.0 | 0.00 | 0.00 | 0.00 | 83 | 1017.3 |
| 20260502115027 | 44 | 253 | 0.0 | 0.0 | 0.00 | 0.00 | 0.00 | 83 | 1017.3 |
| 20260502114532 | 43 | 253 | 0.0 | 0.0 | 0.00 | 0.00 | 0.00 | 82 | 1017.2 |
| 20260502114057 | 43 | 253 | 0.0 | 0.0 | 0.00 | 0.00 | 0.00 | 82 | 1017.2 |
| 20260502113600 | 44 | 253 | 0.0 | 0.0 | 0.00 | 0.00 | 0.00 | 81 | 1017.1 |
| 20260502113045 | 44 | 253 | 0.0 | 0.0 | 0.00 | 0.00 | 0.00 | 81 | 1017.2 |
| 20260502112529 | 44 | 253 | 0.0 | 0.0 | 0.00 | 0.00 | 0.00 | 81 | 1017.1 |
| 20260502112054 | 44 | 253 | 0.0 | 0.0 | 0.00 | 0.00 | 0.00 | 81 | 1017.1 |
| 20260502111537 | 44 | 253 | 0.0 | 0.0 | 0.00 | 0.00 | 0.00 | 80 | 1017.2 |
| 20260502111023 | 44 | 253 | 0.0 | 0.0 | 0.00 | 0.00 | 0.00 | 79 | 1017.2 |
| 20260502110528 | 45 | 259 | 0.0 | 0.0 | 0.00 | 0.00 | 0.00 | 79 | 1017.1 |
| 20260502110033 | 45 | 269 | 0.0 | 0.0 | 0.00 | 0.00 | 0.00 | 78 | 1017.0 |
| 20260502105522 | 45 | 270 | 0.0 | 0.0 | 0.00 | 0.00 | 0.00 | 77 | 1016.9 |
| 20260502105025 | 45 | 271 | 0.0 | 0.0 | 0.00 | 0.00 | 0.00 | 76 | 1016.9 |
| 20260502104530 | 45 | 271 | 0.0 | 0.0 | 0.00 | 0.00 | 0.00 | 76 | 1016.8 |
| 20260502104036 | 45 | 271 | 0.0 | 0.0 | 0.00 | 0.00 | 0.00 | 76 | 1016.8 |
| 20260502103522 | 45 | 271 | 0.0 | 0.0 | 0.00 | 0.00 | 0.00 | 76 | 1016.7 |
| 20260502103026 | 45 | 275 | 0.0 | 0.0 | 0.00 | 0.00 | 0.00 | 76 | 1016.7 |
| 20260502102551 | 45 | 343 | 0.0 | 0.0 | 0.00 | 0.00 | 0.00 | 76 | 1016.6 |
| 20260502102035 | 45 | 343 | 0.0 | 0.0 | 0.00 | 0.00 | 0.00 | 76 | 1016.6 |
| 20260502101520 | 45 | 346 | 0.0 | 0.0 | 0.00 | 0.00 | 0.00 | 77 | 1016.5 |
| 20260502101046 | 45 | 224 | 0.0 | 0.0 | 0.00 | 0.00 | 0.00 | 77 | 1016.5 |
| 20260502100530 | 45 | 224 | 0.0 | 0.0 | 0.00 | 0.00 | 0.00 | 78 | 1016.4 |
| 20260502091523 | 44 | 224 | 0.0 | 0.0 | 0.00 | 0.00 | 0.00 | 82 | 1016.2 |
| 20260502091029 | 44 | 224 | 0.0 | 0.0 | 0.00 | 0.00 | 0.00 | 82 | 1016.2 |
| 20260502090534 | 44 | 224 | 0.0 | 0.0 | 0.00 | 0.00 | 0.00 | 82 | 1016.2 |
| 20260502071523 | 47 | 224 | 0.0 | 0.0 | 0.00 | 0.00 | 0.00 | 78 | 1016.0 |
| 20260502071028 | 47 | 224 | 0.0 | 0.0 | 0.00 | 0.00 | 0.00 | 78 | 1016.0 |
| 20260502070553 | 47 | 224 | 0.0 | 0.0 | 0.00 | 0.00 | 0.00 | 79 | 1016.0 |
| 20260502070057 | 47 | 224 | 0.0 | 0.0 | 0.00 | 0.00 | 0.00 | 78 | 1016.0 |
| 20260502065522 | 47 | 224 | 0.0 | 0.0 | 0.00 | 0.00 | 0.00 | 77 | 1016.0 |
| 20260502065026 | 47 | 224 | 0.0 | 0.0 | 0.00 | 0.00 | 0.00 | 77 | 1016.0 |
| 20260502064531 | 47 | 224 | 0.0 | 0.0 | 0.00 | 0.00 | 0.00 | 77 | 1016.0 |
| 20260502064056 | 47 | 224 | 0.0 | 0.0 | 0.00 | 0.00 | 0.00 | 76 | 1016.0 |
| 20260502063601 | 47 | 224 | 0.0 | 0.0 | 0.00 | 0.00 | 0.00 | 75 | 1016.1 |
| 20260502063029 | 47 | 224 | 0.0 | 0.0 | 0.00 | 0.00 | 0.00 | 75 | 1016.1 |
| 20260502062533 | 47 | 224 | 0.0 | 0.0 | 0.00 | 0.00 | 0.00 | 75 | 1016.1 |
| 20260502062037 | 47 | 224 | 0.0 | 0.0 | 0.00 | 0.00 | 0.00 | 74 | 1016.2 |
| 20260502061522 | 47 | 224 | 0.0 | 0.0 | 0.00 | 0.00 | 0.00 | 74 | 1016.2 |
| 20260502061028 | 47 | 224 | 0.0 | 0.0 | 0.00 | 0.00 | 0.00 | 74 | 1016.2 |
| 20260502060533 | 48 | 224 | 0.0 | 0.0 | 0.00 | 0.00 | 0.00 | 74 | 1016.3 |
| 20260502060038 | 48 | 224 | 0.0 | 0.0 | 0.00 | 0.00 | 0.00 | 73 | 1016.3 |
| 20260502055523 | 48 | 224 | 0.0 | 0.0 | 0.00 | 0.00 | 0.00 | 72 | 1016.3 |
| 20260502055028 | 49 | 224 | 0.0 | 0.0 | 0.00 | 0.00 | 0.00 | 71 | 1016.3 |
| 20260502054553 | 49 | 224 | 0.0 | 0.0 | 0.00 | 0.00 | 0.00 | 71 | 1016.4 |
| 20260502054036 | 49 | 224 | 0.0 | 0.0 | 0.00 | 0.00 | 0.00 | 70 | 1016.4 |
| 20260502053521 | 49 | 224 | 0.0 | 0.0 | 0.00 | 0.00 | 0.00 | 70 | 1016.3 |
| 20260502053031 | 49 | 224 | 0.0 | 1.0 | 0.00 | 0.00 | 0.00 | 71 | 1016.3 |
| 20260502052536 | 49 | 223 | 0.0 | 1.0 | 0.00 | 0.00 | 0.00 | 71 | 1016.3 |
| 20260502052022 | 49 | 299 | 0.0 | 0.0 | 0.00 | 0.00 | 0.00 | 72 | 1016.0 |
| 20260502051527 | 49 | 299 | 0.0 | 0.0 | 0.00 | 0.00 | 0.00 | 72 | 1016.0 |
| 20260502051033 | 49 | 299 | 0.0 | 0.0 | 0.00 | 0.00 | 0.00 | 72 | 1015.9 |
| 20260502050537 | 49 | 299 | 0.0 | 0.0 | 0.00 | 0.00 | 0.00 | 73 | 1015.9 |
| 20260502050023 | 49 | 299 | 0.0 | 0.0 | 0.00 | 0.00 | 0.00 | 74 | 1016.0 |
| 20260502045529 | 49 | 299 | 0.0 | 0.0 | 0.00 | 0.00 | 0.00 | 75 | 1016.0 |
| 20260502045033 | 49 | 299 | 0.0 | 0.0 | 0.00 | 0.00 | 0.00 | 75 | 1016.0 |
| 20260502044538 | 49 | 299 | 0.0 | 0.0 | 0.00 | 0.00 | 0.00 | 75 | 1016.0 |
| 20260502044027 | 50 | 299 | 0.0 | 0.0 | 0.00 | 0.00 | 0.00 | 74 | 1016.0 |
| 20260502043532 | 50 | 299 | 0.0 | 0.0 | 0.00 | 0.00 | 0.00 | 73 | 1016.0 |
| 20260502043037 | 50 | 299 | 0.0 | 0.0 | 0.00 | 0.00 | 0.00 | 74 | 1015.9 |
| 20260502042601 | 50 | 299 | 0.0 | 0.0 | 0.00 | 0.00 | 0.00 | 72 | 1015.9 |
| 20260502042024 | 50 | 299 | 0.0 | 0.0 | 0.00 | 0.00 | 0.00 | 72 | 1015.9 |
| 20260502041528 | 50 | 299 | 0.0 | 0.0 | 0.00 | 0.00 | 0.00 | 71 | 1016.0 |
| 20260502041033 | 50 | 299 | 0.0 | 0.0 | 0.00 | 0.00 | 0.00 | 71 | 1016.0 |
| 20260502040537 | 50 | 299 | 0.0 | 0.0 | 0.00 | 0.00 | 0.00 | 70 | 1016.1 |
| 20260502040024 | 50 | 299 | 0.0 | 0.0 | 0.00 | 0.00 | 0.00 | 69 | 1016.2 |
| 20260502035529 | 51 | 299 | 0.0 | 0.0 | 0.00 | 0.00 | 0.00 | 68 | 1016.2 |
| 20260502035034 | 51 | 299 | 0.0 | 0.0 | 0.00 | 0.00 | 0.00 | 67 | 1016.3 |
| 20260502034600 | 51 | 299 | 0.0 | 0.0 | 0.00 | 0.00 | 0.00 | 66 | 1016.3 |
| 20260502034028 | 51 | 299 | 0.0 | 0.0 | 0.00 | 0.00 | 0.00 | 66 | 1016.3 |
| 20260502033533 | 51 | 299 | 0.0 | 0.0 | 0.00 | 0.00 | 0.00 | 65 | 1016.3 |
| 20260502033038 | 51 | 299 | 0.0 | 0.0 | 0.00 | 0.00 | 0.00 | 64 | 1016.3 |
| 20260502032523 | 51 | 299 | 0.0 | 0.0 | 0.00 | 0.00 | 0.00 | 64 | 1016.3 |
| 20260502032028 | 52 | 299 | 0.0 | 0.0 | 0.00 | 0.00 | 0.00 | 64 | 1016.3 |
| 20260502031554 | 52 | 299 | 0.0 | 0.0 | 0.00 | 0.00 | 0.00 | 63 | 1016.3 |
| 20260502031038 | 52 | 299 | 0.0 | 0.0 | 0.00 | 0.00 | 0.00 | 63 | 1016.2 |
| 20260502030523 | 52 | 299 | 0.0 | 0.0 | 0.00 | 0.00 | 0.00 | 63 | 1016.2 |
| 20260502030029 | 52 | 299 | 0.0 | 0.0 | 0.00 | 0.00 | 0.00 | 63 | 1016.2 |
| 20260502025534 | 53 | 299 | 0.0 | 0.0 | 0.00 | 0.00 | 0.00 | 63 | 1016.2 |
| 20260502025059 | 53 | 299 | 0.0 | 0.0 | 0.00 | 0.00 | 0.00 | 63 | 1016.2 |
| 20260502024524 | 53 | 299 | 0.0 | 0.0 | 0.00 | 0.00 | 0.00 | 62 | 1016.1 |
| 20260502024033 | 53 | 299 | 0.0 | 0.0 | 0.00 | 0.00 | 0.00 | 61 | 1016.1 |
| 20260502023539 | 53 | 299 | 0.0 | 0.0 | 0.00 | 0.00 | 0.00 | 60 | 1016.0 |
| 20260502023045 | 54 | 299 | 0.0 | 0.0 | 0.00 | 0.00 | 0.00 | 60 | 1016.0 |
| 20260502022529 | 54 | 299 | 0.0 | 0.0 | 0.00 | 0.00 | 0.00 | 60 | 1015.9 |
| 20260502022034 | 54 | 299 | 0.0 | 0.0 | 0.00 | 0.00 | 0.00 | 59 | 1015.9 |
| 20260502021539 | 55 | 299 | 0.0 | 0.0 | 0.00 | 0.00 | 0.00 | 59 | 1015.8 |
| 20260502021024 | 55 | 299 | 0.0 | 0.0 | 0.00 | 0.00 | 0.00 | 56 | 1015.8 |
| 20260502020528 | 55 | 299 | 0.0 | 0.0 | 0.00 | 0.00 | 0.00 | 57 | 1015.6 |
| 20260502020034 | 55 | 299 | 0.0 | 0.0 | 0.00 | 0.00 | 0.00 | 56 | 1015.6 |
| 20260502015539 | 56 | 299 | 0.0 | 0.0 | 0.00 | 0.00 | 0.00 | 56 | 1015.6 |
| 20260502015024 | 56 | 299 | 0.0 | 0.0 | 0.00 | 0.00 | 0.00 | 54 | 1015.5 |
| 20260502014533 | 56 | 299 | 0.0 | 0.0 | 0.00 | 0.00 | 0.00 | 53 | 1015.5 |
| 20260502014038 | 57 | 299 | 0.0 | 0.0 | 0.00 | 0.00 | 0.00 | 51 | 1015.5 |
| 20260502013523 | 57 | 299 | 0.0 | 0.0 | 0.00 | 0.00 | 0.00 | 50 | 1015.3 |
| 20260502013030 | 58 | 299 | 0.0 | 0.0 | 0.00 | 0.00 | 0.00 | 50 | 1015.3 |
| 20260502012555 | 58 | 299 | 0.0 | 0.0 | 0.00 | 0.00 | 0.00 | 47 | 1015.2 |
| 20260502012038 | 58 | 299 | 0.0 | 0.0 | 0.00 | 0.00 | 0.00 | 47 | 1015.2 |
| 20260502011524 | 59 | 299 | 0.0 | 0.0 | 0.00 | 0.00 | 0.00 | 45 | 1015.1 |
| 20260502011031 | 60 | 299 | 0.0 | 0.0 | 0.00 | 0.00 | 0.00 | 42 | 1014.9 |
| 20260502010536 | 60 | 299 | 0.0 | 0.0 | 0.00 | 0.00 | 0.00 | 42 | 1014.8 |
| 20260502010021 | 61 | 299 | 0.0 | 0.0 | 0.00 | 0.00 | 0.00 | 41 | 1014.7 |
| 20260502005526 | 61 | 299 | 0.0 | 0.0 | 0.00 | 0.00 | 0.00 | 40 | 1014.6 |
| 20260502005034 | 62 | 299 | 0.0 | 0.0 | 0.00 | 0.00 | 0.00 | 39 | 1014.5 |
| 20260502004539 | 62 | 299 | 0.0 | 0.0 | 0.00 | 0.00 | 0.00 | 39 | 1014.5 |
| 20260502004045 | 63 | 300 | 0.0 | 0.0 | 0.00 | 0.00 | 0.00 | 37 | 1014.5 |
| 20260502003529 | 63 | 299 | 0.0 | 0.0 | 0.00 | 0.00 | 0.00 | 37 | 1014.5 |
| 20260502003034 | 63 | 302 | 0.0 | 0.0 | 0.00 | 0.00 | 0.00 | 36 | 1014.4 |
| 20260502002540 | 63 | 305 | 0.0 | 0.0 | 0.00 | 0.00 | 0.00 | 35 | 1014.4 |
| 20260502002024 | 63 | 279 | 0.0 | 0.0 | 0.00 | 0.00 | 0.00 | 35 | 1014.3 |
| 20260502001530 | 63 | 279 | 0.0 | 0.0 | 0.00 | 0.00 | 0.00 | 34 | 1014.3 |
| 20260502001035 | 64 | 276 | 0.0 | 0.0 | 0.00 | 0.00 | 0.00 | 33 | 1014.4 |
| 20260502000521 | 64 | 57 | 0.0 | 0.0 | 0.00 | 0.00 | 0.00 | 32 | 1014.3 |
| 20260502000046 | 65 | 263 | 0.0 | 1.0 | 0.00 | 0.00 | 0.00 | 33 | 1014.3 |
| 20260501235530 | 66 | 39 | 0.0 | 1.0 | 0.00 | 0.00 | 0.00 | 31 | 1014.3 |
| 20260501235038 | 66 | 189 | 0.0 | 0.0 | 0.00 | 0.00 | 0.00 | 31 | 1014.4 |
| 20260501234523 | 66 | 19 | 0.0 | 0.0 | 0.00 | 0.00 | 0.00 | 32 | 1014.4 |
| 20260501234028 | 66 | 63 | 0.0 | 0.0 | 0.00 | 0.00 | 0.00 | 33 | 1014.3 |
| 20260501233552 | 65 | 5 | 0.0 | 0.0 | 0.00 | 0.00 | 0.00 | 32 | 1014.3 |
| 20260501233057 | 65 | 35 | 0.0 | 1.0 | 0.00 | 0.00 | 0.00 | 32 | 1014.3 |
| 20260501232522 | 66 | 52 | 0.0 | 1.0 | 0.00 | 0.00 | 0.00 | 31 | 1014.2 |
| 20260501232026 | 67 | 47 | 0.0 | 0.0 | 0.00 | 0.00 | 0.00 | 30 | 1014.2 |
| 20260501231531 | 67 | 283 | 0.0 | 0.0 | 0.00 | 0.00 | 0.00 | 30 | 1014.3 |
| 20260501231038 | 67 | 42 | 0.0 | 0.0 | 0.00 | 0.00 | 0.00 | 30 | 1014.2 |
| 20260501230523 | 67 | 42 | 0.0 | 1.0 | 0.00 | 0.00 | 0.00 | 30 | 1014.3 |
| 20260501230028 | 67 | 40 | 0.0 | 1.0 | 0.00 | 0.00 | 0.00 | 29 | 1014.2 |
| 20260501225533 | 67 | 32 | 0.0 | 0.0 | 0.00 | 0.00 | 0.00 | 30 | 1014.3 |
| 20260501225021 | 67 | 290 | 0.0 | 0.0 | 0.00 | 0.00 | 0.00 | 29 | 1014.1 |
| 20260501224526 | 67 | 22 | 0.0 | 0.0 | 0.00 | 0.00 | 0.00 | 30 | 1014.1 |
| 20260501224031 | 67 | 250 | 0.0 | 0.0 | 0.00 | 0.00 | 0.00 | 29 | 1014.1 |
| 20260501223535 | 67 | 325 | 0.0 | 0.0 | 0.00 | 0.00 | 0.00 | 31 | 1014.1 |
| 20260501223022 | 67 | 251 | 0.0 | 0.0 | 0.00 | 0.00 | 0.00 | 29 | 1014.2 |
| 20260501222528 | 68 | 259 | 0.0 | 0.0 | 0.00 | 0.00 | 0.00 | 29 | 1014.3 |
| 20260501222032 | 67 | 39 | 0.0 | 0.0 | 0.00 | 0.00 | 0.00 | 29 | 1014.5 |
| 20260501221537 | 67 | 70 | 0.0 | 0.0 | 0.00 | 0.00 | 0.00 | 27 | 1014.4 |
| 20260501221023 | 67 | 5 | 0.0 | 0.0 | 0.00 | 0.00 | 0.00 | 29 | 1014.4 |
| 20260501220527 | 67 | 281 | 0.0 | 0.0 | 0.00 | 0.00 | 0.00 | 29 | 1014.4 |
| 20260501220036 | 67 | 107 | 0.0 | 0.0 | 0.00 | 0.00 | 0.00 | 30 | 1014.3 |
| 20260501215521 | 67 | 50 | 0.0 | 0.0 | 0.00 | 0.00 | 0.00 | 28 | 1014.4 |
| 20260501215026 | 67 | 304 | 0.0 | 1.0 | 0.00 | 0.00 | 0.00 | 28 | 1014.5 |
| 20260501214552 | 68 | 318 | 0.0 | 1.0 | 0.00 | 0.00 | 0.00 | 27 | 1014.5 |
| 20260501214037 | 68 | 127 | 0.0 | 5.0 | 0.00 | 0.00 | 0.00 | 27 | 1014.6 |
| 20260501213522 | 68 | 29 | 0.0 | 5.0 | 0.00 | 0.00 | 0.00 | 27 | 1014.7 |
| 20260501213028 | 68 | 22 | 0.0 | 1.0 | 0.00 | 0.00 | 0.00 | 27 | 1014.8 |
| 20260501212532 | 69 | 30 | 0.0 | 1.0 | 0.00 | 0.00 | 0.00 | 26 | 1014.8 |
| 20260501212058 | 69 | 13 | 0.0 | 0.0 | 0.00 | 0.00 | 0.00 | 27 | 1014.9 |
| 20260501211521 | 69 | 69 | 0.0 | 1.0 | 0.00 | 0.00 | 0.00 | 27 | 1014.9 |
| 20260501211026 | 69 | 55 | 0.0 | 1.0 | 0.00 | 0.00 | 0.00 | 26 | 1015.1 |
| 20260501210547 | 69 | 329 | 0.0 | 0.0 | 0.00 | 0.00 | 0.00 | 25 | 1015.2 |
| 20260501210033 | 69 | 227 | 0.0 | 1.0 | 0.00 | 0.00 | 0.00 | 26 | 1015.3 |
| 20260501205521 | 68 | 174 | 0.0 | 1.0 | 0.00 | 0.00 | 0.00 | 27 | 1015.4 |
| 20260501205046 | 68 | 58 | 0.0 | 1.0 | 0.00 | 0.00 | 0.00 | 28 | 1015.4 |
| 20260501204531 | 68 | 49 | 0.0 | 1.0 | 0.00 | 0.00 | 0.00 | 27 | 1015.6 |
| 20260501204038 | 69 | 86 | 0.0 | 1.0 | 0.00 | 0.00 | 0.00 | 25 | 1015.6 |
| 20260501203522 | 69 | 19 | 0.0 | 1.0 | 0.00 | 0.00 | 0.00 | 27 | 1015.9 |
| 20260501203027 | 68 | 92 | 0.0 | 1.0 | 0.00 | 0.00 | 0.00 | 28 | 1015.9 |
| 20260501202532 | 68 | 264 | 0.0 | 11.0 | 0.00 | 0.00 | 0.00 | 27 | 1016.0 |
| 20260501202037 | 68 | 266 | 1.0 | 11.0 | 0.00 | 0.00 | 0.00 | 28 | 1016.1 |
| 20260501201542 | 67 | 244 | 0.0 | 4.0 | 0.00 | 0.00 | 0.00 | 29 | 1016.2 |
| 20260501201026 | 66 | 350 | 0.0 | 1.0 | 0.00 | 0.00 | 0.00 | 30 | 1016.3 |
| 20260501200552 | 67 | 275 | 0.0 | 1.0 | 0.00 | 0.00 | 0.00 | 28 | 1016.4 |
| 20260501200036 | 67 | 28 | 0.0 | 1.0 | 0.00 | 0.00 | 0.00 | 31 | 1016.5 |
| 20260501195525 | 67 | 192 | 0.0 | 1.0 | 0.00 | 0.00 | 0.00 | 28 | 1016.5 |
| 20260501195030 | 68 | 133 | 0.0 | 2.0 | 0.00 | 0.00 | 0.00 | 28 | 1016.6 |
| 20260501194535 | 69 | 275 | 0.0 | 3.0 | 0.00 | 0.00 | 0.00 | 27 | 1016.6 |
| 20260501194101 | 69 | 276 | 0.0 | 3.0 | 0.00 | 0.00 | 0.00 | 27 | 1016.7 |
| 20260501193544 | 69 | 171 | 0.0 | 0.0 | 0.00 | 0.00 | 0.00 | 27 | 1016.8 |
| 20260501193028 | 69 | 206 | 0.0 | 0.0 | 0.00 | 0.00 | 0.00 | 27 | 1016.8 |
| 20260501192533 | 69 | 131 | 0.0 | 0.0 | 0.00 | 0.00 | 0.00 | 29 | 1016.9 |
| 20260501192038 | 68 | 68 | 0.0 | 1.0 | 0.00 | 0.00 | 0.00 | 29 | 1016.9 |
| 20260501191523 | 68 | 42 | 0.0 | 1.0 | 0.00 | 0.00 | 0.00 | 27 | 1017.0 |
| 20260501191027 | 67 | 300 | 0.0 | 1.0 | 0.00 | 0.00 | 0.00 | 27 | 1017.0 |